^^
Station Historical Data
Daily Summary for October 23, 2021 Units:  English    Metric   Both
Daily Weekly Monthly Yearly
  High: Low: Average:
Temperature: 46.6 °F 44.4 °F 45.3 °F
Dew Point: 40.6 °F 36.4 °F 38.1 °F
Humidity: 81% 72% 76%
Wind Speed: 2mph 0mph 1mph
Wind Gust: 3mph - -
Wind- - SE
Pressure: 29.98 in 29.96 in -
Precipitation: 0.00 in    
 
 
Tabular Data for October 23, 2021
Time Temperature Dew Point Pressure Wind Wind Speed Wind Gust Humidity Rainfall Rate (Hourly) solar
00:00 45.2 °F 37.4 °F 29.98 in Calm     74% 0.00 in 0 W/m2
00:05 45.2 °F 37.7 °F 29.98 in Calm     75% 0.00 in 0 W/m2
00:10 45.2 °F 37.7 °F 29.98 in NNW 1 mph 1 mph 75% 0.00 in 0 W/m2
00:15 45.1 °F 37.3 °F 29.98 in WSW 1 mph 1 mph 74% 0.00 in 0 W/m2
00:20 45.1 °F 37.3 °F 29.98 in North 1 mph 1 mph 74% 0.00 in 0 W/m2
00:25 45.1 °F 37.3 °F 29.98 in West 1 mph 2 mph 74% 0.00 in 0 W/m2
00:30 45.1 °F 37.6 °F 29.98 in NW 1 mph 1 mph 75% 0.00 in 0 W/m2
00:35 45.1 °F 37.6 °F 29.97 in ESE 1 mph 1 mph 75% 0.00 in 0 W/m2
00:40 44.9 °F 37.1 °F 29.97 in NNW 1 mph 1 mph 74% 0.00 in 0 W/m2
00:45 44.9 °F 36.8 °F 29.97 in South 1 mph 1 mph 73% 0.00 in 0 W/m2
00:50 44.9 °F 36.8 °F 29.97 in WNW 1 mph 2 mph 73% 0.00 in 0 W/m2
00:55 44.9 °F 36.8 °F 29.97 in North 1 mph 2 mph 73% 0.00 in 0 W/m2
01:00 44.9 °F 36.8 °F 29.97 in SW 1 mph 1 mph 73% 0.00 in 0 W/m2
01:05 44.9 °F 36.4 °F 29.97 in SE 1 mph 1 mph 72% 0.00 in 0 W/m2
01:10 44.9 °F 36.8 °F 29.97 in WNW 1 mph 1 mph 73% 0.00 in 0 W/m2
01:15 44.9 °F 36.8 °F 29.97 in NE 1 mph 1 mph 73% 0.00 in 0 W/m2
01:20 44.9 °F 37.1 °F 29.97 in NE 1 mph 1 mph 74% 0.00 in 0 W/m2
01:25 44.9 °F 36.8 °F 29.97 in NE 1 mph 1 mph 73% 0.00 in 0 W/m2
01:30 44.9 °F 36.8 °F 29.97 in East 1 mph 1 mph 73% 0.00 in 0 W/m2
01:35 44.9 °F 36.4 °F 29.97 in North 1 mph 1 mph 72% 0.00 in 0 W/m2
01:40 45 °F 36.5 °F 29.97 in North 1 mph 2 mph 72% 0.00 in 0 W/m2
01:45 45.1 °F 37 °F 29.97 in ESE 1 mph 2 mph 73% 0.00 in 0 W/m2
01:50 45.2 °F 37.4 °F 29.97 in NNW 1 mph 1 mph 74% 0.00 in 0 W/m2
01:55 45.3 °F 37.2 °F 29.97 in NNW 1 mph 2 mph 73% 0.00 in 0 W/m2
02:00 45.3 °F 36.8 °F 29.97 in North 2 mph 2 mph 72% 0.00 in 0 W/m2
02:05 45.4 °F 37.6 °F 29.97 in NNE 2 mph 2 mph 74% 0.00 in 0 W/m2
02:10 45.3 °F 37.5 °F 29.97 in WNW 1 mph 1 mph 74% 0.00 in 0 W/m2
02:15 45.1 °F 37 °F 29.97 in SE 1 mph 1 mph 73% 0.00 in 0 W/m2
02:20 44.9 °F 36.8 °F 29.97 in NW 1 mph 1 mph 73% 0.00 in 0 W/m2
02:25 45 °F 37.2 °F 29.97 in NNW 1 mph 1 mph 74% 0.00 in 0 W/m2
02:30 44.9 °F 37.5 °F 29.97 in NW 1 mph 1 mph 75% 0.00 in 0 W/m2
02:35 44.9 °F 37.8 °F 29.97 in North 1 mph 1 mph 76% 0.00 in 0 W/m2
02:40 44.9 °F 37.5 °F 29.97 in East 1 mph 1 mph 75% 0.00 in 0 W/m2
02:45 44.9 °F 37.5 °F 29.97 in South 1 mph 1 mph 75% 0.00 in 0 W/m2
02:50 44.8 °F 37.4 °F 29.97 in WSW 1 mph 1 mph 75% 0.00 in 0 W/m2
02:55 44.7 °F 37.3 °F 29.97 in WNW 1 mph 3 mph 75% 0.00 in 0 W/m2
03:00 44.6 °F 37.2 °F 29.97 in NE 1 mph 1 mph 75% 0.00 in 0 W/m2
03:05 44.5 °F 37.1 °F 29.97 in North 1 mph 1 mph 75% 0.00 in 0 W/m2
03:10 44.4 °F 37 °F 29.97 in NNE 1 mph 1 mph 75% 0.00 in 0 W/m2
03:15 44.4 °F 36.6 °F 29.97 in SW 1 mph 1 mph 74% 0.00 in 0 W/m2
03:20 44.4 °F 37 °F 29.97 in North 1 mph 1 mph 75% 0.00 in 0 W/m2
03:25 44.4 °F 36.6 °F 29.96 in SSW 1 mph 1 mph 74% 0.00 in 0 W/m2
03:30 44.5 °F 37.1 °F 29.96 in SW 1 mph 1 mph 75% 0.00 in 0 W/m2
03:35 44.6 °F 37.2 °F 29.96 in ESE 1 mph 1 mph 75% 0.00 in 0 W/m2
03:40 44.6 °F 37.2 °F 29.96 in NNE 1 mph 1 mph 75% 0.00 in 0 W/m2
03:45 44.7 °F 37.3 °F 29.96 in NE 1 mph 1 mph 75% 0.00 in 0 W/m2
03:50 44.7 °F 37.3 °F 29.96 in NW 1 mph 2 mph 75% 0.00 in 0 W/m2
03:55 44.8 °F 37.4 °F 29.96 in North 1 mph 2 mph 75% 0.00 in 0 W/m2
04:00 44.8 °F 37.4 °F 29.96 in North 1 mph 1 mph 75% 0.00 in 0 W/m2
04:05 44.7 °F 37.6 °F 29.96 in SE 1 mph 1 mph 76% 0.00 in 0 W/m2
04:10 44.8 °F 37.4 °F 29.96 in East 1 mph 1 mph 75% 0.00 in 0 W/m2
04:15 44.7 °F 37.6 °F 29.96 in North 1 mph 2 mph 76% 0.00 in 0 W/m2
04:20 44.7 °F 37.3 °F 29.96 in NE 1 mph 1 mph 75% 0.00 in 0 W/m2
04:25 44.7 °F 37.6 °F 29.96 in North 1 mph 1 mph 76% 0.00 in 0 W/m2
04:30 44.7 °F 37.6 °F 29.96 in North 1 mph 1 mph 76% 0.00 in 0 W/m2
04:35 44.9 °F 37.8 °F 29.96 in North 1 mph 1 mph 76% 0.00 in 0 W/m2
04:40 44.9 °F 38.1 °F 29.96 in NE 1 mph 1 mph 77% 0.00 in 0 W/m2
04:45 45.1 °F 38 °F 29.96 in NNW 1 mph 1 mph 76% 0.00 in 0 W/m2
04:50 45.1 °F 38.3 °F 29.96 in NNE 1 mph 1 mph 77% 0.00 in 0 W/m2
04:55 45.2 °F 38.4 °F 29.96 in ENE 1 mph 1 mph 77% 0.00 in 0 W/m2
05:00 45.2 °F 38.4 °F 29.96 in NE 1 mph 1 mph 77% 0.00 in 0 W/m2
05:05 45.2 °F 38.7 °F 29.96 in NW 1 mph 2 mph 78% 0.00 in 0 W/m2
05:10 45.2 °F 38.7 °F 29.96 in WSW 1 mph 1 mph 78% 0.00 in 0 W/m2
05:15 45.2 °F 38.4 °F 29.96 in NE 1 mph 2 mph 77% 0.00 in 0 W/m2
05:20 45.2 °F 38.1 °F 29.96 in NNE 1 mph 1 mph 76% 0.00 in 0 W/m2
05:25 45.2 °F 38.1 °F 29.96 in NNE 1 mph 1 mph 76% 0.00 in 0 W/m2
05:30 45.3 °F 38.2 °F 29.96 in NNE 1 mph 1 mph 76% 0.00 in 0 W/m2
05:35 45.4 °F 38.3 °F 29.96 in ENE 1 mph 1 mph 76% 0.00 in 0 W/m2
05:40 45.4 °F 38.6 °F 29.96 in NNE 1 mph 1 mph 77% 0.00 in 0 W/m2
05:50 45.5 °F 38.7 °F 29.96 in NNE 2 mph 2 mph 77% 0.00 in 0 W/m2
05:55 45.2 °F 38.1 °F 29.96 in ENE 2 mph 2 mph 76% 0.00 in 0 W/m2
06:00 45.2 °F 38.7 °F 29.96 in NNW 1 mph 1 mph 78% 0.00 in 0 W/m2
06:05 45.1 °F 38 °F 29.96 in ENE 1 mph 2 mph 76% 0.00 in 0 W/m2
06:10 45.1 °F 38.3 °F 29.96 in NNW 1 mph 1 mph 77% 0.00 in 0 W/m2
06:15 45.1 °F 38.6 °F 29.97 in North 1 mph 1 mph 78% 0.00 in 0 W/m2
06:20 45 °F 38.6 °F 29.96 in NW 1 mph 2 mph 78% 0.00 in 0 W/m2
06:25 45.1 °F 38.6 °F 29.96 in ESE 1 mph 2 mph 78% 0.00 in 0 W/m2
06:30 45.1 °F 39 °F 29.96 in ENE 1 mph 1 mph 79% 0.00 in 0 W/m2
06:35 45.1 °F 39 °F 29.97 in NNE 1 mph 2 mph 79% 0.00 in 0 W/m2
06:40 45.1 °F 39.3 °F 29.97 in SSW 1 mph 1 mph 80% 0.00 in 0 W/m2
06:45 45.2 °F 39.4 °F 29.97 in South 1 mph 1 mph 80% 0.00 in 0 W/m2
06:50 45.2 °F 39.7 °F 29.97 in NE 1 mph 1 mph 81% 0.00 in 0 W/m2
06:55 45.2 °F 39.1 °F 29.97 in North 1 mph 1 mph 79% 0.00 in 0 W/m2
07:00 45.3 °F 39.2 °F 29.97 in NNE 1 mph 1 mph 79% 0.00 in 0 W/m2
07:05 45.4 °F 39.3 °F 29.97 in East 1 mph 1 mph 79% 0.00 in 0 W/m2
07:10 45.4 °F 38.6 °F 29.97 in NE 1 mph 1 mph 77% 0.00 in 0 W/m2
07:15 45.6 °F 39.1 °F 29.97 in ENE 1 mph 1 mph 78% 0.00 in 0 W/m2
07:20 45.7 °F 39.2 °F 29.97 in NE 1 mph 1 mph 78% 0.00 in 0 W/m2
07:25 45.7 °F 38.9 °F 29.97 in NW 1 mph 1 mph 77% 0.00 in 0 W/m2
07:30 45.7 °F 38.6 °F 29.97 in North 1 mph 1 mph 76% 0.00 in 0 W/m2
07:35 45.7 °F 38.9 °F 29.97 in Calm   1 mph 77% 0.00 in 0 W/m2
07:40 45.8 °F 39 °F 29.96 in Calm   2 mph 77% 0.00 in 0 W/m2
07:45 45.8 °F 39 °F 29.96 in North 1 mph 2 mph 77% 0.00 in 0 W/m2
07:50 45.9 °F 39.1 °F 29.97 in NW 1 mph 1 mph 77% 0.00 in 0 W/m2
07:55 45.9 °F 38.8 °F 29.97 in North 1 mph 1 mph 76% 0.00 in 0 W/m2
08:00 46 °F 38.9 °F 29.97 in SW 1 mph 1 mph 76% 0.00 in 0 W/m2
08:05 46 °F 39.2 °F 29.97 in WSW 1 mph 1 mph 77% 0.00 in 5 W/m2
08:10 46.1 °F 38.6 °F 29.97 in SE 1 mph 1 mph 75% 0.00 in 7 W/m2
08:15 46 °F 38.5 °F 29.97 in SE 1 mph 1 mph 75% 0.00 in 9 W/m2
08:20 46.1 °F 38.6 °F 29.97 in East 1 mph 1 mph 75% 0.00 in 18 W/m2
08:25 46.1 °F 38.6 °F 29.97 in WNW 1 mph 1 mph 75% 0.00 in 18 W/m2
08:30 46.3 °F 39.1 °F 29.97 in NE 1 mph 1 mph 76% 0.00 in 18 W/m2
08:35 46.3 °F 39.5 °F 29.97 in NE 1 mph 1 mph 77% 0.00 in 19 W/m2
08:40 46.2 °F 39.4 °F 29.97 in NE 1 mph 1 mph 77% 0.00 in 26 W/m2
08:45 46.3 °F 40.1 °F 29.98 in North 1 mph 1 mph 79% 0.00 in 35 W/m2
08:50 46.3 °F 40.1 °F 29.98 in North 1 mph 1 mph 79% 0.00 in 28 W/m2
08:55 46.4 °F 40.6 °F 29.98 in WNW 1 mph 1 mph 80% 0.00 in 35 W/m2
09:00 46.2 °F 39.7 °F 29.98 in NNE 1 mph 1 mph 78% 0.00 in 46 W/m2
09:05 46.2 °F 39.7 °F 29.97 in North 1 mph 1 mph 78% 0.00 in 58 W/m2
09:10 46.2 °F 39.1 °F 29.97 in SW 1 mph 1 mph 76% 0.00 in 70 W/m2
09:15 46.2 °F 38.7 °F 29.98 in NNE 1 mph 1 mph 75% 0.00 in 60 W/m2
09:20 46.2 °F 38 °F 29.98 in NE 1 mph 2 mph 73% 0.00 in 46 W/m2
09:25 46.3 °F 38.5 °F 29.98 in North 1 mph 2 mph 74% 0.00 in 81 W/m2
09:30 46.4 °F 38.6 °F 29.98 in NNE 1 mph 1 mph 74% 0.00 in 95 W/m2
09:35 46.5 °F 38.3 °F 29.98 in NNW 1 mph 2 mph 73% 0.00 in 54 W/m2
09:40 46.5 °F 38.3 °F 29.98 in ENE 1 mph 2 mph 73% 0.00 in 44 W/m2
09:45 46.6 °F 38.8 °F 29.98 in North 1 mph 2 mph 74% 0.00 in 49 W/m2
09:50 46.5 °F 39 °F 29.98 in WNW 1 mph 3 mph 75% 0.00 in 63 W/m2
09:55 46.5 °F 38.7 °F 29.98 in North 2 mph 3 mph 74% 0.00 in 63 W/m2
10:00 46.5 °F 38.7 °F 29.98 in NNE 1 mph 1 mph 74% 0.00 in 69 W/m2
10:05 46.5 °F 39 °F 29.98 in NW 1 mph 1 mph 75% 0.00 in 60 W/m2
Sand Point, Michigan, USA
Compliments of Weather Underground - 2 mb